Home > Weather > Vasai-Virar > Past weeks

Flag for India Weather for the Past 2 Weeks in Vasai-Virar, Maharashtra, India

Now
86 °F

Passing clouds.


Feels Like: 95 °F
Forecast: 80 / 93 °F
Wind: 6 mph from Northwest

Location: Mumbai / Santacruz

Current Time: May 6, 2016 at 8:47:55 PM

Latest Report: May 6, 2016 at 8:00 PM


Visibility: 3 mi

Pressure: 29.77 "Hg

Humidity: 70%

Dew Point: 75 °F

Location of Vasai-VirarLocation

Historic Weather in Vasai-Virar — Graph

°F

Vasai-Virar Temperature Yesterday

Maximum temperature yesterday: 91 °F (at 2:30 PM)
Minimum temperature yesterday: 84 °F (at 12:00 AM)
Average temperature yesterday: 86 °F

High & Low Weather Summary for the Past Weeks

 TemperatureHumidityPressure
High100 °F (Apr 27, 11:30 AM)89% (Apr 29, 3:30 AM)29.89 "Hg (Apr 29, 3:30 AM)
Low79 °F (Apr 26, 6:00 AM)25% (Apr 27, 8:00 PM)29.68 "Hg (Apr 27, 5:30 PM)
Average86 °F69%29.78 "Hg
* Reported Apr 21 7:30 PM — May 6 7:30 PM, Vasai-Virar, Weather by CustomWeather, © 2016

Note: Actual official high and low records may vary slightly from our data, if they occured in-between our weather recording intervals... More about our weather records

Advertising

Vasai-Virar Weather History for the Previous 24 Hours

Scroll right to see more
 ConditionsComfort  
Time TempWeatherWind HumidityBarometerVisibility
7:30 PM
Fri, May 6
86 °FScattered clouds.8 mph70%29.77 "Hg4 mi
7:00 PM86 °FScattered clouds.9 mph70%29.74 "Hg5 mi
6:30 PM86 °FScattered clouds.13 mph70%29.74 "HgN/A
6:00 PM86 °FScattered clouds.10 mph70%29.74 "Hg5 mi
5:30 PM88 °FPassing clouds.8 mph70%29.74 "Hg4 mi
5:00 PM88 °FPassing clouds.8 mph70%29.71 "Hg4 mi
4:30 PM88 °FPassing clouds.9 mph70%29.71 "Hg4 mi
4:00 PM88 °FPassing clouds.12 mph66%29.74 "Hg4 mi
3:30 PM90 °FPassing clouds.13 mph67%29.74 "Hg4 mi
3:00 PM90 °FPassing clouds.10 mph63%29.77 "Hg4 mi
2:30 PM90 °FPassing clouds.12 mph63%29.77 "Hg4 mi
2:00 PM90 °FScattered clouds.12 mph63%29.80 "Hg4 mi
1:30 PM90 °FScattered clouds.14 mph63%29.80 "Hg4 mi
1:00 PM90 °FScattered clouds.10 mph63%29.80 "Hg4 mi
12:30 PM90 °FScattered clouds.9 mph63%29.83 "Hg4 mi
12:00 PM90 °FScattered clouds.8 mph59%29.83 "Hg4 mi
11:30 AM90 °FScattered clouds.12 mph59%29.83 "Hg4 mi
11:00 AM88 °FScattered clouds.12 mph62%29.83 "Hg4 mi
10:30 AM90 °FScattered clouds.9 mph59%29.83 "Hg4 mi
10:00 AM88 °FScattered clouds.7 mph62%29.83 "Hg4 mi
9:30 AM88 °FScattered clouds.8 mph59%29.83 "Hg4 mi
9:00 AM88 °FScattered clouds.3 mph62%29.83 "Hg4 mi
8:30 AM86 °FScattered clouds.3 mph66%29.83 "Hg3 mi
8:00 AM84 °FScattered clouds.3 mph70%29.83 "Hg2 mi
7:30 AM82 °FScattered clouds.3 mph79%29.83 "Hg2 mi
7:00 AM82 °FScattered clouds.5 mph79%29.80 "Hg2 mi
6:30 AM82 °FPassing clouds.3 mph79%29.80 "Hg2 mi
6:00 AM82 °FPassing clouds.3 mph74%29.80 "Hg2 mi
5:30 AM82 °FPassing clouds.5 mph74%29.77 "Hg2 mi
5:00 AM82 °FPassing clouds.7 mph74%29.77 "Hg2 mi
4:30 AM84 °FPassing clouds.3 mph70%29.77 "Hg2 mi
4:00 AM84 °FPassing clouds.5 mph70%29.77 "Hg2 mi
3:30 AM84 °FPassing clouds.6 mph70%29.77 "Hg2 mi
3:00 AM84 °FPassing clouds.7 mph70%29.77 "Hg2 mi
2:30 AM84 °FPassing clouds.6 mph70%29.77 "Hg2 mi
2:00 AM84 °FPassing clouds.6 mph74%29.80 "Hg2 mi
1:30 AM84 °FPassing clouds.6 mph70%29.80 "Hg2 mi
1:00 AM84 °FPassing clouds.6 mph70%29.80 "Hg2 mi
12:30 AM84 °FPassing clouds.6 mph74%29.80 "Hg2 mi
12:00 AM84 °FPassing clouds.6 mph74%29.83 "Hg2 mi
11:30 PM
Thu, May 5
84 °FPassing clouds.7 mph74%29.83 "Hg2 mi
11:00 PM84 °FPassing clouds.6 mph74%29.83 "Hg2 mi
10:30 PM84 °FPassing clouds.7 mph74%29.83 "Hg2 mi
10:00 PM84 °FPassing clouds.7 mph74%29.80 "Hg2 mi
9:30 PM84 °FPassing clouds.9 mph74%29.80 "Hg3 mi
9:00 PM84 °FPassing clouds.8 mph74%29.77 "Hg3 mi
8:30 PM84 °FPassing clouds.8 mph79%29.77 "Hg3 mi
8:00 PM86 °FPassing clouds.7 mph75%29.77 "Hg4 mi
Weather by CustomWeather, © 2016

See weather overviewHow to use our weather pages